[[{"header":{"parameterUnit":"m.s-1","parameterCategory":1,"la1":30.2992,"la2":30.254,"lo1":-89.0895,"lo2":-89.0443,"dy":0.0025,"dx":0.0025,"nx":19,"ny":19,"refTime":"2026-04-04T03:00:00:Z","depth":0,"parameterNumber":2,"parameterNumberName":"U-component_of_WINDS"},"data":[0,0,0,-3.6614,-3.6618,-3.6781,-3.6782,-3.6985,-3.6987,0,0,0,0,0,0,0,0,0,0,0,-3.6562,-3.6563,-3.6614,-3.6618,-3.6781,-3.6782,-3.6985,-3.6987,0,0,0,0,0,0,0,0,0,0,0,-3.6561,-3.6563,-3.6565,-3.6619,-3.6781,-3.6782,-3.6985,-3.6863,0,0,0,0,0,0,0,0,0,0,-3.6706,-3.6654,-3.6563,-3.6565,-3.6619,-3.6781,-3.6782,-3.6858,-3.6871,-3.6909,0,-3.6941,0,-3.6967,-3.7,-3.7001,0,0,0,-3.6621,-3.6643,-3.669,-3.6565,-3.6621,-3.678,-3.6708,-3.6865,-3.688,-3.6927,-3.6944,-3.6952,-3.6971,-3.7002,-3.7003,-3.721,-3.7211,0,0,-3.6612,-3.6589,-3.668,-3.67,-3.6673,-3.6703,-3.6713,-3.6874,-3.6892,-3.6945,-3.6957,-3.6974,-3.7003,-3.7004,-3.721,-3.7211,0,0,0,-3.6584,-3.6583,-3.6627,-3.6691,-3.6721,-3.6708,-3.6719,-3.6885,-3.6901,-3.6959,-3.6976,-3.7004,-3.7007,-3.7209,-3.721,-3.7227,0,0,0,-3.6579,-3.6567,-3.6623,-3.661,-3.6718,-3.6805,-3.6726,-3.689,-3.6909,-3.6975,-3.7004,-3.7008,-3.7208,-3.7209,-3.7225,-3.7239,0,0,0,-3.6553,-3.6564,-3.6586,-3.6609,-3.6678,-3.6803,-3.6828,-3.6895,-3.6919,-3.7001,-3.7009,-3.7207,-3.7209,-3.7223,-3.7235,-3.7286,0,0,0,-3.6519,-3.66,-3.6586,-3.6684,-3.6677,-3.6813,-3.6827,-3.693,-3.7002,-3.7005,-3.7208,-3.721,-3.7222,-3.7233,-3.7283,-3.7322,-3.7337,0,0,-3.6608,-3.661,-3.6669,-3.6662,-3.6794,-3.679,-3.6925,-3.7013,-3.7043,-3.7153,-3.7159,-3.7226,-3.7235,-3.7285,-3.7431,-3.7442,0,0,0,-3.669,-3.6732,-3.6772,-3.684,-3.6909,-3.6969,-3.7039,-3.7072,-3.7167,-3.7095,-3.726,-3.7266,-3.7296,-3.7316,-3.7325,-3.7352,-3.7219,-3.7218,-3.7218,-3.6783,-3.6816,-3.6916,-3.6969,-3.7035,-3.7106,-3.7163,-3.722,-3.7234,-3.7273,-3.7304,-3.7389,-3.7411,-3.7418,-3.7446,-3.733,-3.733,-3.733,-3.733,-3.6916,-3.698,-3.6998,-3.7101,-3.7136,-3.7224,-3.7297,-3.7305,-3.7392,-3.7367,-3.7396,-3.7364,-3.743,-3.7456,-3.7332,-3.7332,-3.7331,-3.7331,-3.7331,-3.6978,-3.7015,-3.7054,-3.7155,-3.723,-3.7282,-3.7365,-3.7394,-3.7423,-3.7451,-3.7488,-3.7487,-3.7489,-3.7467,-3.7467,-3.7468,-3.7468,-3.7468,-3.7468,-3.7026,-3.707,-3.7135,-3.7217,-3.7264,-3.7331,-3.7405,-3.7454,-3.7514,-3.7529,-3.753,-3.7539,-3.7431,-3.7402,-3.7473,-3.7472,-3.7472,-3.7471,-3.7471,-3.7145,-3.7123,-3.7223,-3.7271,-3.737,-3.7442,-3.748,-3.7575,-3.762,-3.766,-3.7665,-3.7581,-3.7584,-3.7577,-3.7552,-3.7658,-3.7658,-3.7658,-3.7658,-3.7195,-3.7201,-3.731,-3.7385,-3.7461,-3.7506,-3.762,-3.7679,-3.7738,-3.7768,-3.7758,-3.7729,-3.772,-3.7729,-3.7718,-3.7696,-3.7836,-3.7836,-3.7836,-3.7269,-3.7284,-3.7373,-3.7429,-3.7509,-3.7577,-3.7685,-3.777,-3.7833,-3.7844,-3.7791,-3.7784,-3.7738,-3.7722,-3.7728,-3.7711,-3.7671,0,0]},{"header":{"parameterUnit":"m.s-1","parameterCategory":1,"la1":30.2992,"la2":30.254,"lo1":-89.0895,"lo2":-89.0443,"dy":0.0025,"dx":0.0025,"nx":19,"ny":19,"refTime":"2026-04-04T03:00:00:Z","depth":0,"parameterNumber":3,"parameterNumberName":"V-component_of_WINDS"},"data":[0,0,0,3.8378,3.8381,3.848,3.848,3.8614,3.8615,0,0,0,0,0,0,0,0,0,0,0,3.8354,3.8355,3.8378,3.8381,3.848,3.848,3.8613,3.8615,0,0,0,0,0,0,0,0,0,0,0,3.8353,3.8355,3.8356,3.8381,3.8479,3.848,3.8613,3.8536,0,0,0,0,0,0,0,0,0,0,3.8438,3.842,3.8354,3.8356,3.8382,3.8479,3.848,3.8532,3.8541,3.8572,0,3.8602,0,3.8611,3.8624,3.8625,0,0,0,3.8377,3.8413,3.8436,3.8356,3.8383,3.8479,3.8434,3.8537,3.8546,3.8584,3.8604,3.8608,3.8613,3.8625,3.8626,3.8824,3.8825,0,0,3.8371,3.8374,3.8429,3.8442,3.8428,3.8431,3.8437,3.8542,3.8564,3.8604,3.8611,3.8615,3.8626,3.8627,3.8823,3.8824,0,0,0,3.8358,3.837,3.839,3.8437,3.8455,3.8434,3.8441,3.8559,3.8566,3.8613,3.8617,3.8627,3.8629,3.8822,3.8823,3.8882,0,0,0,3.8355,3.8363,3.8388,3.839,3.8453,3.8508,3.8456,3.8558,3.857,3.8616,3.8627,3.863,3.882,3.8823,3.8878,3.8909,0,0,0,3.8346,3.8361,3.8377,3.839,3.8433,3.8506,3.8519,3.8561,3.8573,3.8625,3.863,3.882,3.8822,3.8874,3.8903,3.8964,0,0,0,3.8336,3.8426,3.8378,3.8481,3.8432,3.8542,3.8518,3.8599,3.8651,3.8628,3.8821,3.8823,3.8873,3.8899,3.896,3.9016,3.9039,0,0,3.8451,3.844,3.85,3.846,3.858,3.8527,3.8655,3.8699,3.87,3.8783,3.8787,3.8879,3.8902,3.8963,3.9168,3.9187,0,0,0,3.8537,3.8581,3.8612,3.8662,3.8699,3.8734,3.8759,3.8775,3.8846,3.8743,3.8917,3.8931,3.8966,3.8993,3.9009,3.9039,3.8836,3.8835,3.8835,3.8702,3.8702,3.8802,3.8815,3.8864,3.889,3.893,3.8957,3.894,3.8981,3.9006,3.9131,3.9162,3.9174,3.9206,3.9035,3.9035,3.9035,3.9035,3.8871,3.8933,3.8912,3.9002,3.9001,3.9076,3.9106,3.9092,3.9162,3.9111,3.9142,3.9088,3.9194,3.9223,3.904,3.9039,3.9038,3.9038,3.9038,3.898,3.901,3.903,3.9105,3.9163,3.9172,3.9242,3.9238,3.9234,3.9265,3.9292,3.9291,3.929,3.9278,3.9278,3.9279,3.9279,3.928,3.928,3.9085,3.9107,3.9166,3.9216,3.9249,3.9292,3.9321,3.9354,3.9389,3.938,3.9381,3.9361,3.9205,3.9166,3.9287,3.9285,3.9284,3.9284,3.9283,3.9258,3.9219,3.9311,3.9345,3.9404,3.9463,3.9458,3.9525,3.9551,3.9586,3.9561,3.9446,3.9433,3.9421,3.9389,3.956,3.956,3.956,3.956,3.9351,3.9345,3.944,3.9494,3.9547,3.9553,3.9658,3.9683,3.9701,3.9718,3.9692,3.965,3.9637,3.9632,3.9615,3.9585,3.9802,3.9803,3.9803,3.9458,3.9458,3.9548,3.9567,3.9614,3.9654,3.9753,3.9817,3.983,3.9813,3.9731,3.9721,3.9652,3.9629,3.961,3.9583,3.9528,0,0]}]]